Regional Weather Roundup
Issued by NWS

Home | Current Version | Previous Version | Text Only | Print | Product List | Glossary Off
Versions: 1 2 3 4 5 6 7 8 9 10 11 12 13 14 15 16 17 18 19 20 21 22 23 24 25 26 27 28 29 30 31 32 33 34 35 36 37 38 39 40 41 42 43 44 45 46 47 48 49 50

000
ASUS43 KMKX 290000
RWRWI

WISCONSIN REGIONAL WEATHER ROUNDUP
NATIONAL WEATHER SERVICE MILWAUKEE/SULLIVAN WI
700 PM CDT THU AUG 28 2014

NOTE: "FAIR" INDICATES FEW OR NO CLOUDS BELOW 12,000 FEET WITH NO
SIGNIFICANT WEATHER AND/OR OBSTRUCTIONS TO VISIBILITY.

WIZ001-002-006>008-014>016-023>028-290100-
NORTHWEST WISCONSIN

CITY           SKY/WX    TMP DP  RH WIND       PRES   REMARKS
SUPERIOR ARPT  CLOUDY    63  57  81 NE5       29.99F
ASHLAND        MOCLDY    65  55  70 NE5       30.02F
6HR MIN TEMP:  65; 6HR MAX TEMP:  75;

HAYWARD        CLOUDY    68  60  75 SE5       30.01F
6HR MIN TEMP:  68; 6HR MAX TEMP:  72;

SIREN          CLOUDY    69  61  76 E3        30.00S
RICE LAKE      DRIZZLE   66  63  89 SE5       30.03S
6HR MIN TEMP:  66; 6HR MAX TEMP:  72;

LADYSMITH      CLOUDY    68  61  79 SE6       30.05S
EAU CLAIRE     NOT AVBL
MENOMONIE      DRIZZLE   67  64  92 E6        30.00F
NEW RICHMOND   LGT RAIN  67  64  93 SE8       29.99F
OSCEOLA        CLOUDY    68  63  83 SE10      30.01S
$$

WIZ003>005-009-010-017-018-290100-
NORTH CENTRAL WISCONSIN

CITY           SKY/WX    TMP DP  RH WIND       PRES   REMARKS
WOODRUFF       CLOUDY    67  57  70 S5        30.06S
RHINELANDER    CLOUDY    65  58  78 S3        30.07F
6HR MIN TEMP:  65; 6HR MAX TEMP:  71;

EAGLE RIVER      N/A     65  55  70 CALM      30.06S
LAND O LAKES   CLOUDY    67  55  65 S3        30.06F
PHILLIPS       CLOUDY    67  59  76 S9        30.04S
TOMAHAWK       CLOUDY    65  59  80 CALM      30.06S
MEDFORD        DRIZZLE   64  62  94 E5        30.05S
MERRILL        DRIZZLE   65  62  90 S6        30.06S
$$

WIZ029-030-035-036-043>047-290100-
CENTRAL WISCONSIN

CITY           SKY/WX    TMP DP  RH WIND       PRES   REMARKS
WAUSAU         LGT RAIN  65  62  90 SE9       30.04F
6HR MIN TEMP:  64; 6HR MAX TEMP:  70; 6HR PCP:  0.02;

MOSINEE        NOT AVBL
MARSHFIELD     CLOUDY    66  64  93 E8        30.04S
6HR MIN TEMP:  66; 6HR MAX TEMP:  72; 6HR PCP: TRACE;

STEVENS POINT  LGT RAIN  64  61  90 SE6       30.06S
WAUPACA        DRIZZLE   67  62  83 SE7       30.08R
WAUTOMA        NOT AVBL
WISC RAPIDS    LGT RAIN  67  63  87 E8        30.05F
6HR MIN TEMP:  67; 6HR MAX TEMP:  74; 6HR PCP:  0.03;

CAMP DOUGLAS   NOT AVBL
$$

WIZ011>013-019>022-031-037>040-048>050-290100-
NORTHEAST WISCONSIN

CITY           SKY/WX    TMP DP  RH WIND       PRES   REMARKS
ANTIGO         DRIZZLE   64  61  90 SE7       30.08S
STURGEON BAY   CLOUDY    63  54  72 SE7       30.10S
6HR MIN TEMP:  63; 6HR MAX TEMP:  66;

GREEN BAY      CLOUDY    64  55  72 SE8       30.08S
6HR MIN TEMP:  64; 6HR MAX TEMP:  71;

MANITOWOC      NOT AVBL
APPLETON       LGT RAIN  64  54  68 SE10      30.09S
CLINTONVILLE   CLOUDY    66  57  72 SE7       30.07S
OSHKOSH        CLOUDY    65  54  67 SE8       30.08S
6HR MIN TEMP:  65; 6HR MAX TEMP:  73; 6HR PCP: TRACE;

$$

WIZ032>034-041-042-053>061-290100-
SOUTHWEST WISCONSIN

CITY           SKY/WX    TMP DP  RH WIND       PRES   REMARKS
LA CROSSE      LGT RAIN  68  65  90 SE8       29.97F
6HR MIN TEMP:  68; 6HR MAX TEMP:  73; 6HR PCP:  0.29;

SPARTA         RAIN      67  64  93 E3        30.02S
VIROQUA        CLOUDY    65  65 100 E8        30.00F
BOSCOBEL       LGT RAIN  72  62  71 VRB6      29.99F
6HR MIN TEMP:  71; 6HR MAX TEMP:  75; 6HR PCP:  0.02;

PRAIRIE DU CHI CLOUDY    72  61  68 SE8       29.97F
PLATTEVILLE    CLOUDY    71  63  76 SE12      30.01F
$$

WIZ056-057-062-063-064-067-068-290100-
SOUTH CENTRAL WISCONSIN

CITY           SKY/WX    TMP DP  RH WIND       PRES   REMARKS
BARABOO/DELLS  LGT RAIN  68  59  73 SE8       30.04S
LONE ROCK      NOT AVBL
WATERTOWN      CLOUDY    66  56  70 E3        30.06S
MADISON        LGT RAIN  69  58  67 E9        30.04F
6HR MIN TEMP:  69; 6HR MAX TEMP:  75; 6HR PCP: TRACE;

MIDDLETON      FAIR      71  56  59 SE14      30.04F
MONROE         CLOUDY    68  61  77 E7        30.03F
JANESVILLE     CLEAR     70  55  60 E7        30.04F
$$

WIZ051-052-058>065-066-070>072-290100-
SOUTHEAST WISCONSIN

CITY           SKY/WX    TMP DP  RH WIND       PRES   REMARKS
MILWAUKEE      CLOUDY    67  56  67 E7        30.07F
6HR MIN TEMP:  66; 6HR MAX TEMP:  71;

WAUKESHA       CLOUDY    64  52  63 E8        30.09F
MILWAUKEE/TIMM NOT AVBL
RACINE         CLOUDY    68  57  68 E10       30.08F
6HR MIN TEMP:  68; 6HR MAX TEMP:  72;

BURLINGTON     CLOUDY    64  57  77 E7        30.07F
KENOSHA        CLOUDY    67  60  78 E12       30.06F
6HR MIN TEMP:  67; 6HR MAX TEMP:  73;

FOND DU LAC    CLOUDY    65  53  65 SE6       30.08F
6HR MIN TEMP:  64; 6HR MAX TEMP:  72; 6HR PCP: TRACE;

SHEBOYGAN      CLOUDY    65  54  67 S3        30.09S
6HR MIN TEMP:  65; 6HR MAX TEMP:  70;

WEST BEND      CLOUDY    63  52  67 E5        30.08F
JUNEAU         CLOUDY    65  54  67 E7        30.08F
$$

LSZ147-162-290100-
LAKE SUPERIOR

STATION/POSITION TIME  TEMP    WIND        PRES    WAVE
                       AIR SEA DIR/SP/G            HT/PER
                 (UTC) (F)     (DEG/KT/KT) (MB)    (FT/S)
W MID LAKE BUOY  2250   61 59   70/  8/  8 1016.9F   0
DEVILS ISLAND    2300   62      90/ 10/ 11 1016.6F
PORT WING        2300   65      30/  9/ 11 1015.9F
SAXON HARBOR     2300   66      50/  4/  9 1016.3F
$$

LMZ867-665-643>646-290100-
LAKE MICHIGAN

STATION/POSITION TIME  TEMP    WIND        PRES    WAVE
                       AIR SEA DIR/SP/G            HT/PER
                 (UTC) (F)     (DEG/KT/KT) (MB)    (FT/S)
N MID LAKE BUOY  2250   63 66  120/  6/  6 1019.9F   0
NORTHPORT PIER   2300   65     150/  7/ 11 1019.3F
SISTER BAY       2211   66     180/ 10/ 13   N/A
ALGOMA LAKESHORE 2308          190/  8/ 10   N/A
KEWAUNEE LAKESHO 2300   65     160/  7/  8 1018.2F
SHEBOYGAN LAKESH 2300   65 70  150/  6/  6 1019.1F
ATWATER BUOY     2300   68     100/  6/ 10 1019.7F
MILWAUKEE LAKESH 2300   67      70/  7/  8   N/A
S MID LAKE BUOY  2250   69 69   60/ 10/ 12 1018.4F
KENOSHA   LAKESH 2300   68      90/  8/  9 1018.3S
$$

TC  - TEMPERATURE IN CELSIUS
VSB - VISIBILITY IN STATUTE MILES
WCI - WIND CHILL INDEX
HX  - HEAT INDEX




USA.gov is the U.S. government's official web portal to all federal, state and local government web resources and services.